Location: Home
(42.5358°N, 72.7383°W)
Time: 15:57:07
(UTC-04:00)

Kosmos-337 - Pass Details

Date: 07 July 2022
Orbit: 1467 x 1552 km, 74.0° (Epoch: 18 August)

Event Time Altitude Azimuth Distance (km) Brightness Sun altitude
Rises 23:13:03 0° 343° (NNW) 4,733 ? -20.8°
Reaches altitude 10° 23:17:05 10° 358° (N) 3,745 ? -21.1°
Maximum altitude 23:23:48 22° 46° (NE) 2,899 ? -21.6°
Drops below altitude 10° 23:30:25 10° 93° (E) 3,704 ? -22.0°
Enters shadow 23:32:29 - 102° (ESE) 4,191 ? -22.2°
